Showing default

HOTSAT-1, 56954

Orbit data source: Space-Track

HOTSAT-1, 56954 is a payload satellite owned by Satellite Vu (UK) in SSO that was launched on Mon, 12 Jun 2023 UTC via an FALCON 9 launch vehicle from the Air Force Western Test Range (AFWTR). Payload-class satellites include a variety of spacecraft equipped with specific instruments for various scientific and technological missions. These include communications satellites like Starlink; space stations such as the ISS; scientific satellites like the Hubble; Earth observation satellites from companies like Planet Labs, Umbra, and HawkEye 360; GPS; miniature CubeSats for education and research; and military/defense satellites.

Loading next visibility...
Identifier
56954, 2023-084Y
Orbit
SSO
Country
Flag of UKUK
Related business
Manufacturer
SSTL
Mission
Non-operational Commercial Imaging
Bus & Motor
DARKCARB, H2O AOCS
Mass
130 kg wet, 130 kg dry
Launch date (UTC)
2023-06-12 (3 years ago)
Launch vehicle
FALCON 9
Launch site
Air Force Western Test Range (AFWTR)
Object type
Payload
Rocket body
Debris
Shape & HBR
Box + Cone + 1 Pan, 0.5 m
Radar Cross Section
0.625 m², Large (>1 m²)

Expand to show TLE details & history
Last TLE update: 6 hours ago

TLE from 6 hours ago
0 HOTSAT-1
1 56954U 23084Y   26168.48714240  .00003295  00000-0  14357-3 0  9991
2 56954  97.6232 302.8623 0000718  40.9661 319.1629 15.22928332167143
Epoch: 2026-06-17T11:41Z
TLE epoch observation values (Epoch: 2026-06-17T11:41:29.103Z)
Latitude
-0.00001°
Longitude
-138.25308°
Altitude
499.728 km
Speed
7.615 km/s
True Right ascension
20h 11m 26s
True Declination
0° 00' 00"
Sunlit
Object was in full shadow at epoch
Visualization orbit readout
Latitude
Unknown
Longitude
Unknown
Altitude
Unknown
Speed
Unknown
Apparent Right ascension
Unknown
Apparent Declination
Unknown
Sunlit
N/A
Visualization observer readout
Local Sidereal Time
04:54:35
Azimuth
Unknown
Elevation
Unknown
Doppler factor
Unknown
Orbital elements
Apogee altitude
494.478 km
Perigee altitude
493.491 km
Semi-major axis
6,872.122 km
Eccentricity
0.00007
Inclination
97.6232°
RAAN
302.8623°
Arg. of periapsis
40.9661°
True anomaly
319.15752°
Mean anomaly
319.1629°
Eccentric anomaly
319.16021°
Mean motion
3.80984 °/min
Orbital period
94.49 mins
BSTAR
0.00014357
Loading maneuver chart data...
Computing Atmospheric mass density...

Documentation

Showing up to 5 results
|